Flight Track Log - Related Links

Times and Time Zones

All times are in EDT time to prevent confusion due to time zone crossing. See the FLG3509 flight status page for this flight to view local times or setup timezone preferences in your user account.

Time Position Orientation Groundspeed Altitude Reporting Facility
EDT Latitude Longitude Course Direction KTS MPH feet Rate Location/Type
Sun 08:51:05 PM 42.2258 -83.3558 351° North 160 184 1,600  Level Cleveland Center
Sun 08:52:00 PM 42.2711 -83.3650 352° North 195 224 4,100 2,534 Climbing Cleveland Center
Sun 08:53:01 PM 42.3186 -83.4028 330° Northwest 248 285 6,500 2,197 Climbing Cleveland Center
Sun 08:53:11 PM 42.3228 -83.4111 304° West 234 269 6,700 2,509 Climbing Cleveland Center
Sun 08:53:56 PM 42.3436 -83.4856 291° West 260 299 8,800 2,557 Climbing Cleveland Center
Sun 08:54:12 PM 42.3439 -83.5014 271° West 252 290 9,300 2,262 Climbing Cleveland Center
Sun 08:54:57 PM 42.3083 -83.5850 240° Southwest 295 339 11,100 1,935 Climbing Cleveland Center
Sun 08:55:14 PM 42.3011 -83.5942 223° Southwest 296 341 11,300 1,443 Climbing Cleveland Center
Sun 08:56:16 PM 42.2147 -83.6244 195° South 331 381 13,000 1,790 Climbing Cleveland Center
Sun 08:57:18 PM 42.1003 -83.6608 193° South 354 407 15,000 1,790 Climbing Cleveland Center
Sun 08:58:20 PM 42.0000 -83.6917 193° South 369 425 16,700 1,512 Climbing Cleveland Center
Sun 08:59:21 PM 41.8972 -83.7239 193° South 376 433 18,100 1,512 Climbing Cleveland Center
Sun 09:00:23 PM 41.7958 -83.7556 193° South 376 433 19,800 919 Climbing Cleveland Center
Sun 09:01:25 PM 41.6994 -83.8108 203° Southwest 381 438 20,000 97 Climbing Cleveland Center
Sun 09:02:27 PM 41.6011 -83.8722 205° Southwest 387 445 20,000  Level Cleveland Center
Sun 09:03:29 PM 41.4822 -83.9483 206° Southwest 394 453 20,000  Level Cleveland Center
Sun 09:04:30 PM 41.3833 -84.0119 206° Southwest 396 456 20,000  Level Cleveland Center
Sun 09:05:32 PM 41.2925 -84.0697 206° Southwest 397 457 20,000  Level Cleveland Center
Sun 09:06:34 PM 41.1744 -84.1464 206° Southwest 396 456 20,000  Level Cleveland Center
Sun 09:07:36 PM 41.0750 -84.2094 206° Southwest 396 456 20,000  Level Cleveland Center
Sun 09:08:37 PM 40.9769 -84.2725 206° Southwest 393 452 20,000  Level Cleveland Center
Sun 09:09:39 PM 40.8786 -84.3322 205° Southwest 391 450 20,000  Level Cleveland Center
Sun 09:10:41 PM 40.7914 -84.3894 206° Southwest 390 449 20,000  Level Cleveland Center
Sun 09:11:42 PM 40.6747 -84.4608 205° Southwest 387 445 20,000  Level Cleveland Center
Sun 09:12:44 PM 40.5778 -84.5217 205° Southwest 387 445 20,000  Level Cleveland Center
Sun 09:13:58 PM 40.4619 -84.5944 206° Southwest 387 445 20,000  Level Indianapolis Center
Sun 09:14:12 PM 40.4303 -84.6136 205° Southwest 390 449 20,000 -136 Level Indianapolis Center
Sun 09:14:42 PM 40.3783 -84.6453 205° Southwest 390 449 19,900 -625 Descending Indianapolis Center
Sun 09:15:00 PM 40.3631 -84.6547 205° Southwest 389 448 19,500 -2,164 Descending Indianapolis Center
Sun 09:15:43 PM 40.2814 -84.7042 205° Southwest 383 441 17,700 -1,967 Descending Indianapolis Center
Sun 09:16:01 PM 40.2675 -84.7139 208° Southwest 387 445 17,500 -2,000 Descending Indianapolis Center
Sun 09:16:43 PM 40.1908 -84.7614 205° Southwest 366 421 15,700 -2,032 Descending Indianapolis Center
Sun 09:17:03 PM 40.1764 -84.7711 207° Southwest 373 429 15,400 -2,066 Descending Indianapolis Center
Sun 09:17:44 PM 40.0936 -84.8225 205° Southwest 382 440 13,600 -2,459 Descending Indianapolis Center
Sun 09:18:04 PM 40.0606 -84.8436 206° Southwest 380 437 12,900 -2,066 Descending Indianapolis Center
Sun 09:18:45 PM 39.9942 -84.8833 205° Southwest 394 453 11,500 -2,066 Descending Indianapolis Center
Sun 09:19:05 PM 39.9589 -84.8917 190° South 386 444 10,800 -1,400 Descending Indianapolis Center
Sun 09:19:45 PM 39.8936 -84.8781 171° South 365 420 10,100 -677 Descending Indianapolis Center
Sun 09:20:07 PM 39.8603 -84.8681 167° South 374 430 10,100  Level Indianapolis Center
Sun 09:21:08 PM 39.7589 -84.8481 171° South 374 430 10,100  Level Indianapolis Center
Sun 09:22:10 PM 39.6567 -84.9042 203° Southwest 371 427 10,100  Level Indianapolis Center
Sun 09:23:11 PM 39.5683 -84.8708 164° South 377 434 10,100  Level Indianapolis Center
Sun 09:24:12 PM 39.4717 -84.8275 161° South 373 429 10,100 -49 Level Indianapolis Center
Sun 09:25:14 PM 39.3742 -84.7886 163° South 371 427 10,000 -97 Descending Indianapolis Center
Sun 09:26:16 PM 39.2547 -84.7636 171° South 368 423 9,900 -293 Descending Indianapolis Center
Sun 09:27:17 PM 39.1717 -84.7600 178° South 302 348 9,400 -1,167 Descending Indianapolis Center
Sun 09:28:04 PM 39.1000 -84.7500 174° South 280 322 7,800 -2,019 Descending Cincinnati TRACON
Sun 09:29:04 PM 39.0333 -84.7667 191° South 272 313 5,800 -1,850 Descending Cincinnati TRACON
Sun 09:30:04 PM 38.9500 -84.7667 180° South 274 315 4,100 -1,333 Descending Cincinnati TRACON
Sun 09:31:10 PM 38.9333 -84.7000 108° East 187 215 3,000 -905 Descending Cincinnati TRACON
Sun 09:32:10 PM 38.9667 -84.6667 38° Northeast 121 139 2,200 -700 Descending Cincinnati TRACON
Sun 09:33:10 PM 39.0000 -84.6667 360° North 125 144 1,600 -600 Descending Cincinnati TRACON
Sun 09:35:00 PM 39.0333 -84.6667 142° Southeast  Level FlightAware Approximate
Sun 09:42:00 PM 39.0488 -84.6678 142° Southeast  Level Estimated

Login

Don't have an account? Register now (free) for customized features, flight alerts, and more!